FW3867 Weather Reports


time (UTC)temp
C
wind
direction
speed
KPH
gust
KPH
rain 1hr
cm
rain 24hr
cm
rain mn
cm
humidity
%
barometer
mb
20260506044524 7 27 4.8 9.7 0.00 0.48 0.48 97 1009.2
20260506043049 7 27 1.6 4.8 0.00 0.48 0.48 97 1009.1
20260506041600 7 27 1.6 8.0 0.00 0.48 0.48 97 1009.3
20260506040047 7 27 4.8 12.9 0.00 0.48 0.48 96 1009.4
20260506034547 7 27 8.0 12.9 0.03 0.48 0.48 96 1008.9
20260506033045 7 27 4.8 12.9 0.03 0.48 0.48 96 1009.5
20260506031547 7 19 4.8 14.5 0.03 0.48 0.48 96 1009.8
20260506030042 7 28 4.8 12.9 0.08 0.48 0.48 95 1009.6
20260506024542 7 28 8.0 14.5 0.08 0.46 0.46 95 1009.6
20260506023039 7 27 11.3 17.7 0.08 0.46 0.46 94 1009.6
20260506021537 7 10 11.3 17.7 0.08 0.46 0.46 93 1009.3
20260506020005 8 360 9.7 16.1 0.03 0.41 0.41 91 1009.6
20260506014509 8 27 11.3 25.7 0.00 0.38 0.38 90 1009.5
20260506013059 8 27 16.1 24.1 0.00 0.38 0.38 89 1009.4
20260506011558 8 28 19.3 29.0 0.00 0.38 0.38 89 1009.3
20260506010054 8 9 17.7 29.0 0.00 0.38 0.38 89 1009.1
20260506004555 10 28 20.9 30.6 0.00 0.38 0.38 89 1008.6
20260506003044 12 28 19.3 29.0 0.00 0.38 0.38 87 1008.2
20260506001604 13 28 16.1 29.0 0.00 0.38 0.38 85 1007.9
20260506000047 14 17 14.5 25.7 0.00 0.38 0.38 85 1008.2
20260505234548 15 19 8.0 17.7 0.00 0.38 0.38 85 1007.9
20260505233037 16 28 12.9 20.9 0.00 0.38 0.38 82 1007.3
20260505231534 17 345 3.2 12.9 0.00 0.38 0.38 70 1006.7
20260505230036 17 280 6.4 17.7 0.00 0.38 0.38 71 1006.5
20260505224537 18 282 11.3 20.9 0.00 0.38 0.38 71 1006.6
20260505223039 18 236 17.7 40.2 0.00 0.38 0.38 69 1006.5
20260505221527 20 209 14.5 29.0 0.00 0.38 0.38 57 1005.9
20260505220035 20 267 14.5 29.0 0.00 0.38 0.38 56 1005.8
20260505214544 20 261 19.3 30.6 0.00 0.38 0.38 56 1005.7
20260505213038 21 254 16.1 32.2 0.00 0.38 0.38 54 1005.6
20260505211521 21 265 22.5 38.6 0.00 0.38 0.38 56 1005.3
20260505210020 21 283 16.1 37.0 0.00 0.38 0.38 58 1005.2
20260505204527 20 219 24.1 49.9 0.00 0.38 0.38 60 1005.3
20260505203119 20 278 16.1 43.5 0.00 0.38 0.38 64 1005.4
20260505201554 20 264 27.4 45.1 0.00 0.38 0.38 64 1005.6
20260505200048 20 268 27.4 51.5 0.00 0.38 0.38 64 1005.7
20260505194543 18 236 20.9 43.5 0.00 0.38 0.38 70 1005.8
20260505193048 18 248 19.3 30.6 0.00 0.38 0.38 73 1005.8
20260505191550 18 224 20.9 30.6 0.10 0.38 0.38 74 1005.9
20260505190046 18 245 19.3 33.8 0.25 0.38 0.38 75 1006.1
20260505184537 18 280 6.4 16.1 0.38 0.38 0.38 74 1005.8
20260505183047 18 280 6.4 14.5 0.38 0.38 0.38 78 1005.6
20260505181535 17 325 8.0 16.1 0.28 0.28 0.28 78 1005.2
20260505180040 17 274 20.9 43.5 0.10 0.10 0.10 71 1005.8
20260505174537 20 248 16.1 30.6 0.00 0.00 0.00 62 1005.4
20260505173037 21 248 14.5 40.2 0.00 0.00 0.00 56 1005.3
20260505171533 21 240 19.3 35.4 0.00 0.00 0.00 56 1005.6
20260505170026 20 232 19.3 35.4 0.00 0.00 0.00 56 1005.8
20260505164533 20 240 22.5 49.9 0.00 0.00 0.00 56 1005.8
20260505163024 20 225 24.1 37.0 0.00 0.00 0.00 55 1005.9
20260505161521 20 238 20.9 38.6 0.00 0.00 0.00 55 1005.3
20260505153103 20 257 25.7 59.5 0.00 0.00 0.00 56 1005.8
20260505151546 20 261 19.3 57.9 0.00 0.00 0.00 57 1005.8
20260505124515 16 227 20.9 38.6 0.00 0.00 0.00 71 1005.6
20260505123011 16 242 27.4 40.2 0.00 0.00 0.00 72 1005.7
20260505121510 15 225 17.7 40.2 0.00 0.00 0.00 74 1006.0
20260505120008 15 219 20.9 35.4 0.00 0.00 0.00 75 1006.1
20260505114506 15 207 19.3 29.0 0.00 0.00 0.00 78 1006.0
20260505113008 14 209 16.1 27.4 0.00 0.00 0.00 80 1006.0
20260505111536 13 255 20.9 32.2 0.00 0.00 0.00 83 1005.9
20260505101529 13 227 17.7 29.0 0.00 0.00 0.00 85 1005.1
20260505100031 13 232 24.1 33.8 0.00 0.00 0.00 85 1005.1
20260505094604 13 222 22.5 40.2 0.00 0.00 0.00 84 1005.1
20260505093055 14 220 32.2 62.8 0.00 0.00 0.00 77 1005.1
20260505091549 16 271 32.2 48.3 0.00 0.00 0.00 68 1005.7
20260505090053 15 223 20.9 40.2 0.00 0.00 0.00 70 1005.4
20260505084545 15 237 24.1 37.0 0.00 0.00 0.00 71 1005.4
20260505083043 15 223 25.7 30.6 0.00 0.00 0.00 71 1005.1
20260505081545 14 215 16.1 27.4 0.00 0.00 0.00 71 1005.0
20260505080049 15 211 16.1 25.7 0.00 0.00 0.00 70 1005.1
20260505074533 15 231 17.7 27.4 0.00 0.00 0.00 69 1005.3
20260505073044 15 234 17.7 25.7 0.00 0.00 0.00 68 1005.3
20260505071529 15 225 20.9 32.2 0.00 0.00 0.00 68 1005.2
20260505070027 15 230 17.7 27.4 0.00 0.00 0.00 67 1005.3
20260505064525 15 231 20.9 29.0 0.00 0.00 0.00 68 1005.4
20260505063023 15 239 19.3 30.6 0.00 0.00 0.00 67 1005.4
20260505061521 15 236 20.9 32.2 0.00 0.00 0.00 67 1005.6
20260505060023 15 232 19.3 32.2 0.00 0.00 0.00 66 1005.6